Regional Weather Roundup
Issued by NWS

Home | Current Version | Previous Version | Text Only | Print | Product List | Glossary On
Versions: 1 2 3 4 5 6 7 8 9 10 11 12 13 14 15 16 17 18 19 20 21 22 23 24 25 26 27 28 29 30 31 32 33 34 35 36 37 38 39 40 41 42 43 44 45 46 47 48 49 50
000
ASUS43 KOAX 172202
RWRNE

WEATHER ROUNDUP FOR NEBRASKA
NATIONAL WEATHER SERVICE OMAHA NE
400 PM CST TUE JAN 17 2017

NOTES: SATELLITE DATA IS BEING USED TO AUGMENT CLOUD COVER ABOVE
       12000 FEET.
       "FAIR" INDICATES FEW OR NO CLOUDS BELOW 12,000 FEET WITH NO
       SIGNIFICANT WEATHER AND/OR OBSTRUCTIONS TO VISIBILITY.

  * THESE STATIONS DO NOT REPORT WEATHER SUCH AS RAIN...SNOW OR FOG.

NEZ001>004-019>022-054>056-172300-
NEBRASKA PANHANDLE

CITY           SKY/WX    TMP DP  RH WIND       PRES   REMARKS
SCOTTSBLUFF    SUNNY     48  20  32 N3        29.97R
ALLIANCE       SUNNY     46  15  28 SW10      29.94F
CHADRON        CLOUDY    36  21  54 W5        29.93S WCI  32
KIMBALL        SUNNY     46  32  58 SW5       29.98S
SIDNEY         SUNNY     46  28  49 SW13      29.99R
$$

NEZ057>060-069>072-079>082-172300-
SOUTHWEST NEBRASKA

CITY           SKY/WX    TMP DP  RH WIND       PRES   REMARKS
NORTH PLATTE   SUNNY     46  29  51 W8        30.02R
IMPERIAL       SUNNY     44  26  49 SW8       30.03R
LEXINGTON      SUNNY     46  31  54 W5        30.04S
MCCOOK         SUNNY     46  27  47 SW10      30.05R
OGALLALA       SUNNY     45  31  59 SW5       30.01R
$$

NEZ005>010-023>029-035>040-094-172300-
NORTH CENTRAL NEBRASKA

CITY           SKY/WX    TMP DP  RH WIND       PRES   REMARKS
VALENTINE      SUNNY     51  11  20 SW13      29.93R
AINSWORTH      SUNNY     50  21  31 SW12      29.94S
BROKEN BOW     SUNNY     43  30  60 SW7       30.00S
O`NEILL        SUNNY     46  33  61 S6        29.98S
ORD            SUNNY     40  29  64 S6        30.01S
THEDFORD       SUNNY     49  25  40 SW14      29.97F
$$

NEZ041-046>049-061>064-073>077-083>087-172300-
SOUTH CENTRAL NEBRASKA

CITY           SKY/WX    TMP DP  RH WIND       PRES   REMARKS
GRAND ISLAND   SUNNY     39  35  86 SW8       30.05S WCI  33
AURORA         SUNNY     37  33  85 W7        30.05S WCI  32
HASTINGS       SUNNY     40  33  76 W7        30.07R
HEBRON         SUNNY     38  32  79 W6        30.10R WCI  33
HOLDREGE       SUNNY     44  31  61 W7        30.05R
KEARNEY *      SUNNY     43  30  61 W6        30.05R
YORK           SUNNY     36  32  87 MISG      30.07R
$$

NEZ011>018-030>034-042>045-172300-
NORTHEAST NEBRASKA

CITY           SKY/WX    TMP DP  RH WIND       PRES   REMARKS
NORFOLK        SUNNY     35  30  82 SW5       30.03R WCI  31
ALBION         SUNNY     36  32  86 SW5       30.03S WCI  32
BLAIR          SUNNY     33  30  87 SW3       30.06S
FREMONT        SUNNY     34  30  85 W3        30.07S
TEKAMAH        SUNNY     34  28  79 W6        30.07S WCI  29
WAYNE          SUNNY     35  31  85 W3        30.03S
$$

NEZ050>053-065>068-078-088>093-172300-
SOUTHEAST NEBRASKA

CITY           SKY/WX    TMP DP  RH WIND       PRES   REMARKS
LINCOLN        SUNNY     37  30  75 W8        30.10R WCI  31
OMAHA EPPLEY   MOSUNNY   33  27  78 CALM      30.09R
BEATRICE       MOSUNNY   36  32  85 W8        30.11R WCI  30
FALLS CITY     PTSUNNY   35  31  85 NW5       30.11R WCI  31
NEBRASKA CITY  PTSUNNY   32  31  98 SW6       30.10R WCI  26
PLATTSMOUTH    PTSUNNY   34  29  82 W5        30.09R WCI  30
$$

NEZ044-045-051>053-067-172300-
OMAHA AREA

CITY           SKY/WX    TMP DP  RH WIND       PRES   REMARKS
OMAHA EPPLEY   MOSUNNY   33  27  78 CALM      30.09R
BLAIR          SUNNY     33  30  87 SW3       30.06S
FREMONT        SUNNY     34  30  85 W3        30.07S
MILLARD        SUNNY     37  30  75 CALM      30.09R
OFFUTT AFB     SUNNY     36  32  85 W8        30.09R WCI  29
PLATTSMOUTH    PTSUNNY   34  29  82 W5        30.09R WCI  30
WAHOO          FAIR      35  30  81 W6        30.08R WCI  30
$$



USA.gov is the U.S. government's official web portal to all federal, state and local government web resources and services.